Tracking 23726 objects as of 25-Sep-2021
HD Live streaming from Space Station
objects crossing your sky now

STTW-3

Track STTW-3 now!
STTW-3 is classified as:


NORAD ID: 19710
Int'l Code: 1988-111A
Perigee: 35,772.6 km
Apogee: 35,840.3 km
Inclination: 14.9 °
Period: 1,436.7 minutes
Semi major axis: 42177 km
RCS: 6.3096 m2 (large)
Launch date: December 22, 1988
Source: People's Republic of China (PRC)
Launch site: Xichang Space Center, China (XSC)
aabbcc
Your satellite tracking list
Your tracking list is empty




NASA's NSSDC Master Catalog

Two Line Element Set (TLE):
1 19710U 88111A   21268.18534965  .00000106  00000-0  00000+0 0  9993
2 19710  14.9126 359.1456 0008034 105.8638  11.2637  1.00226508113540
Source of the keplerian elements: AFSPC